RH
56 53 52 53 54 54 52 51 49 49 49 49 50 50 50 49 49 50 48 47 49 52 52 53 54 54 53 52 50 48 47 48 51 52 51 52 53 53 53 53 50 46 46 45 42 42 44 42 39 39 40 42 44 45 46 45 44 44 43 42 41 40 40 41 40 41 43 45 46 48 48 47 47 49 49 50 50 48 46 46 45 43 43 43 42
54 51 50 48 48 48 45 45 46 46 47 48 48 48 48 48 48 48 47 45 47 51 53 53 53 53 52 52 50 49 49 50 51 52 54 54 54 55 55 56 53 48 46 46 44 44 47 46 42 39 40 42 45 46 46 45 43 41 41 42 42 41 41 42 41 41 42 44 47 49 48 47 48 48 48 49 51 49 47 47 47 45 44 43 40
52 50 47 44 43 44 44 45 46 46 46 45 44 45 45 44 45 45 46 46 47 49 51 52 51 51 52 52 52 52 52 53 52 52 54 53 54 55 56 58 56 50 48 47 46 47 49 50 46 44 43 44 46 47 46 45 42 41 42 43 44 45 45 45 45 44 43 43 44 46 46 47 47 48 49 49 49 48 48 49 47 44 41 40 38
50 48 45 43 42 42 43 43 42 42 41 41 40 40 40 40 41 42 44 47 48 49 50 50 51 52 54 56 56 56 55 55 53 51 51 53 55 56 58 60 58 53 51 48 47 48 51 52 50 48 48 48 47 47 48 47 44 43 43 43 45 48 48 48 49 49 46 44 43 44 44 46 48 49 48 49 49 48 49 47 43 38 34 31 30
48 45 43 42 40 39 39 38 38 39 40 40 39 37 38 39 41 43 45 47 47 48 50 50 52 55 57 58 60 59 57 58 56 51 51 53 56 58 61 63 60 56 55 51 47 49 53 54 51 49 50 49 48 47 48 48 46 45 43 42 44 48 48 49 51 51 49 47 46 45 46 47 48 48 46 47 49 47 44 42 38 33 28 26 26
47 44 41 39 38 37 36 36 39 41 43 43 41 42 43 44 46 48 50 48 47 48 50 51 51 55 58 60 62 62 62 61 58 54 51 53 56 59 62 64 62 58 59 54 48 49 55 56 51 49 50 49 48 46 46 45 45 44 44 43 45 48 49 50 51 51 51 48 46 46 45 45 46 45 43 44 45 43 40 38 33 27 26 26 27
46 43 38 37 38 38 37 39 42 44 45 46 45 47 48 49 50 51 53 51 49 50 51 52 51 55 59 60 62 63 63 63 62 60 55 56 58 61 64 65 63 61 62 56 49 49 54 56 51 50 50 49 48 47 45 42 43 44 43 44 44 46 49 52 53 53 52 49 46 43 42 42 43 42 40 39 39 37 36 34 30 27 28 28 29
47 41 37 38 40 40 40 41 44 45 45 45 45 48 51 52 53 54 55 55 54 54 54 55 56 58 62 63 64 64 64 66 65 62 59 61 62 64 65 64 63 64 64 58 52 49 50 53 52 51 50 49 48 46 44 41 44 45 44 43 42 43 47 53 55 55 54 51 45 40 37 36 36 37 37 37 36 34 32 31 31 31 31 31 32
46 38 37 40 40 40 41 43 44 45 45 46 48 51 52 54 55 57 58 58 59 60 59 59 61 63 65 66 66 66 66 67 65 64 64 65 67 68 66 63 63 65 64 58 52 48 46 48 50 52 51 49 46 46 44 43 46 44 44 45 43 43 47 52 55 55 52 48 43 38 33 30 30 31 32 32 33 32 32 32 32 32 32 32 33
42 37 38 39 39 41 42 44 45 46 48 50 51 52 52 53 56 58 59 60 62 64 64 62 64 66 67 67 67 67 67 67 65 67 69 69 69 68 66 63 63 64 61 54 49 47 46 45 47 49 49 46 45 45 43 42 46 45 47 48 45 46 47 49 50 49 45 40 37 32 28 26 27 30 31 31 32 33 32 31 31 31 31 31 31
38 37 38 38 40 42 43 45 46 47 50 52 52 52 54 55 57 58 59 60 63 65 65 64 65 67 69 69 69 67 67 67 67 69 70 70 68 67 66 64 63 62 58 52 47 45 45 44 44 45 45 43 42 42 39 38 41 44 47 49 50 51 48 47 47 45 40 36 31 26 24 24 26 29 31 31 32 32 31 31 31 30 30 30 31
36 36 38 41 43 44 45 46 47 49 51 53 54 55 57 57 57 57 56 57 60 62 65 67 67 69 70 69 68 67 68 69 69 69 70 70 68 66 65 63 62 60 56 51 45 42 42 42 42 43 43 41 39 38 36 34 36 41 46 53 57 55 49 47 46 43 36 31 26 23 24 24 25 27 28 28 29 30 30 30 30 30 31 32 32
35 36 39 42 45 46 46 48 50 52 52 52 54 56 58 59 58 55 55 57 60 62 66 68 68 70 70 67 66 65 66 66 67 68 69 68 66 63 62 62 61 60 57 51 45 42 41 41 41 41 41 39 38 36 34 34 39 43 47 54 57 55 51 45 42 37 30 26 24 24 25 24 24 25 26 26 27 29 29 29 29 30 30 29 30
35 36 39 42 46 47 48 51 52 53 53 53 54 57 59 59 57 56 57 60 61 63 66 66 67 69 68 65 63 64 64 64 66 68 67 64 62 61 61 61 60 59 55 50 45 41 40 40 38 37 37 36 34 34 34 37 44 46 47 51 53 53 49 43 39 32 27 25 24 25 25 24 24 24 25 25 26 27 28 29 29 29 27 27 27
36 38 39 42 47 49 51 52 53 54 55 55 56 58 57 56 56 58 60 61 62 65 66 65 65 67 67 64 63 64 64 64 65 65 63 60 60 60 60 60 58 57 53 48 43 41 39 37 35 33 32 31 32 33 35 39 42 44 44 47 48 47 44 40 38 32 28 26 25 25 24 24 24 24 25 25 26 27 28 28 27 26 26 26 26
41 41 41 43 47 51 53 53 54 56 58 57 56 54 54 54 56 57 58 61 63 64 63 63 63 64 63 63 62 61 61 62 62 60 58 57 58 58 59 58 56 54 53 49 43 40 37 33 31 29 29 31 32 33 34 35 37 39 40 41 41 42 42 40 37 33 30 27 25 24 24 24 25 25 26 27 27 27 27 26 26 26 27 27 28
46 45 44 46 48 51 54 56 58 58 58 56 53 52 53 54 55 55 56 58 59 59 60 62 62 59 59 60 60 59 60 60 59 57 57 57 57 56 57 55 54 53 52 49 44 40 34 30 28 29 31 31 31 31 31 32 33 34 35 36 36 39 42 40 36 31 29 27 25 24 24 25 26 27 27 27 27 27 27 26 27 29 29 30 30
50 49 48 49 50 53 56 59 59 57 55 54 55 55 56 56 55 55 55 55 56 58 62 64 61 57 56 56 56 57 60 60 58 57 56 56 57 55 54 53 51 51 50 48 44 38 31 28 29 31 31 29 29 29 30 31 32 32 33 35 37 39 39 39 35 31 28 26 24 24 25 26 27 27 27 27 27 27 27 28 29 30 31 31 31
55 54 52 52 53 56 58 58 57 54 54 55 57 59 58 56 56 55 54 54 56 58 61 63 61 57 56 55 54 55 57 59 58 55 53 53 54 52 50 49 49 49 49 46 41 36 33 32 32 30 27 27 28 28 30 32 33 34 37 39 39 38 37 38 37 32 29 26 26 26 27 27 28 28 28 29 29 29 30 31 31 32 32 32 32
58 57 56 56 57 57 57 57 56 54 55 55 57 59 57 54 55 53 52 53 56 57 58 61 61 59 59 57 55 54 54 55 55 52 51 50 49 48 45 46 47 47 46 42 38 36 35 34 31 28 26 27 28 28 31 34 37 40 43 42 40 38 38 39 36 31 29 29 30 30 30 30 30 30 31 31 31 31 31 31 32 32 32 32 32
60 59 59 60 59 57 57 56 54 53 53 52 54 58 56 53 53 52 53 55 57 57 57 58 59 59 61 58 55 54 53 53 52 50 47 46 45 43 41 43 44 44 42 39 37 36 34 31 27 25 26 28 29 30 33 37 40 43 45 43 41 39 40 39 34 33 32 30 31 31 31 31 31 32 32 31 31 31 31 31 31 31 31 31 32
61 60 60 61 59 56 57 56 54 53 51 50 52 55 54 51 51 53 55 55 55 55 55 55 55 56 57 56 54 53 52 52 51 47 45 44 43 41 40 41 42 42 41 40 38 37 35 32 27 26 27 29 32 36 38 40 41 44 46 44 41 41 41 39 36 36 34 30 30 30 31 30 31 31 31 30 29 29 29 29 29 30 30 31 32
60 60 59 60 60 57 55 55 55 53 52 50 50 52 52 51 50 53 53 52 52 52 53 53 53 52 52 52 51 49 48 49 49 46 44 43 42 41 41 41 41 42 41 41 40 39 38 36 33 31 32 34 38 41 42 42 43 46 47 45 43 43 43 40 38 37 32 29 30 29 29 29 29 29 29 28 28 28 29 29 30 30 30 30 30
60 61 59 60 60 56 53 55 54 52 52 51 50 50 51 51 50 51 51 50 50 51 52 53 52 49 47 47 46 45 46 47 46 44 43 42 42 42 41 41 40 41 42 42 41 41 40 38 36 37 40 42 43 44 44 45 46 49 47 45 44 43 42 39 38 35 29 28 28 28 28 28 28 27 27 27 28 29 30 31 31 30 30 31 31
60 59 58 58 58 55 54 55 54 51 50 51 51 51 52 52 50 49 49 50 51 51 51 53 50 46 44 44 44 44 44 44 42 40 40 39 39 39 39 38 39 41 42 42 41 42 40 38 37 39 43 46 46 45 46 46 46 47 47 45 43 40 39 38 37 35 29 27 27 27 27 27 27 27 28 29 30 31 32 32 32 33 34 35 37
59 58 56 55 54 55 57 56 54 51 49 50 50 49 51 50 48 48 48 48 49 48 50 51 48 44 43 42 42 43 42 41 40 39 39 38 38 38 39 40 42 43 43 43 43 43 38 37 39 41 43 45 46 45 45 45 45 45 46 44 40 37 38 38 38 36 30 27 27 27 27 27 28 29 30 31 33 34 35 35 36 38 39 40 41
59 58 55 52 53 58 59 56 52 51 49 49 49 48 48 48 47 47 47 47 47 45 44 46 45 43 44 44 44 43 42 41 41 40 40 41 43 44 44 44 47 48 47 48 46 44 39 37 40 42 43 42 44 44 43 44 43 43 44 42 38 36 37 36 37 36 29 27 27 27 28 29 30 32 34 36 37 38 38 39 41 42 42 41 41
59 57 55 54 57 60 56 53 52 52 51 49 49 48 46 46 46 45 46 46 47 44 41 41 43 46 48 48 46 44 43 43 42 42 41 43 46 48 49 50 52 52 52 52 47 44 43 39 41 44 44 42 42 42 42 42 41 42 41 38 35 35 35 34 35 35 29 27 28 29 31 32 34 37 38 39 39 38 39 41 42 42 41 40 40
56 54 55 57 57 57 53 50 50 52 53 50 50 50 47 47 46 44 43 44 46 46 44 42 44 48 49 47 46 46 44 44 45 46 47 47 47 49 50 51 52 52 53 53 47 45 44 42 43 46 45 42 40 40 40 40 41 41 38 35 35 34 34 33 34 33 28 28 29 31 34 37 39 40 41 40 39 39 40 41 40 39 38 39 40
54 53 56 57 54 53 51 49 49 51 52 51 51 49 48 48 47 42 40 42 45 44 42 43 44 45 45 45 46 46 45 45 46 50 51 51 49 48 49 49 48 50 54 53 49 48 46 45 47 46 43 41 40 39 39 38 39 37 35 34 34 35 35 35 35 32 29 31 33 34 37 40 43 43 42 39 38 38 38 37 36 36 37 38 37
54 53 55 54 50 49 49 49 50 50 50 51 51 48 46 48 45 41 39 41 43 40 40 42 43 43 43 43 43 42 43 43 47 51 51 50 48 48 49 49 46 47 53 53 50 50 48 47 48 46 43 41 40 41 40 39 37 35 34 33 34 35 36 36 35 32 31 32 35 37 38 41 43 43 41 39 38 36 34 33 33 34 35 36 34
54 53 53 51 46 45 48 50 50 48 47 50 50 46 45 47 44 40 41 42 42 41 41 42 42 42 41 39 38 39 42 43 47 50 51 50 48 47 47 48 47 46 49 52 51 51 49 48 47 45 43 41 40 39 39 39 38 37 37 36 35 35 35 36 35 34 33 32 33 37 39 40 42 41 39 38 39 38 35 32 31 32 33 33 32
53 52 53 50 45 44 47 49 49 48 47 48 47 45 45 45 43 41 43 43 42 42 42 41 40 40 38 35 35 39 45 47 48 50 50 50 48 45 44 45 47 48 49 50 50 50 49 47 45 43 42 40 38 37 39 39 39 39 39 39 38 36 35 35 36 36 34 32 33 36 39 41 40 38 36 36 37 39 38 36 35 33 31 31 30
49 50 53 50 45 44 46 47 48 47 45 45 45 45 45 43 42 43 43 41 39 38 38 37 37 37 35 33 34 40 46 48 49 49 47 47 45 42 41 42 45 47 49 50 49 49 48 47 45 43 43 42 38 38 42 42 39 39 40 41 40 37 37 36 37 38 36 34 34 35 38 39 37 35 35 34 35 36 37 40 41 36 32 31 31
48 50 51 48 46 44 44 44 45 45 43 44 45 45 45 43 43 42 39 38 36 34 33 33 32 32 32 32 34 39 46 48 48 47 46 46 44 41 41 41 44 47 48 48 48 47 47 46 44 43 43 43 42 41 43 42 40 39 40 41 39 36 36 36 35 36 35 35 36 35 35 35 34 33 34 34 35 35 35 38 40 37 32 31 32
50 50 49 47 47 45 43 43 45 45 44 46 46 45 44 44 44 41 37 35 34 31 31 31 31 30 30 32 35 40 46 49 48 49 48 47 46 45 46 45 46 48 48 48 48 47 46 45 45 43 42 42 42 41 40 40 39 39 39 40 39 38 38 36 35 34 33 34 36 35 33 32 32 33 34 34 35 35 36 36 35 33 31 31 31
50 50 48 48 49 47 45 45 45 47 48 49 46 44 45 45 44 41 38 36 34 32 31 31 31 31 32 32 35 41 44 47 50 51 49 46 45 46 48 47 47 48 48 48 48 47 46 45 45 43 41 40 37 36 36 36 37 38 37 36 37 39 39 37 35 34 34 36 37 36 33 33 33 34 35 35 34 33 34 36 34 33 32 31 31
48 47 48 49 49 48 47 46 46 49 52 52 48 46 46 46 46 44 42 41 39 37 36 35 33 32 33 34 37 40 42 46 50 51 48 46 46 46 47 48 48 48 48 48 48 48 47 45 44 42 41 38 35 35 38 38 37 36 35 33 34 36 38 37 35 35 36 37 39 38 37 37 37 36 38 38 36 33 33 35 35 35 35 33 32
45 45 47 49 49 49 48 46 46 49 52 52 49 47 46 46 47 46 45 46 44 42 40 40 36 32 32 34 37 40 43 47 49 50 49 48 45 45 47 49 49 48 48 48 47 47 47 45 44 43 43 39 37 40 44 44 39 34 32 32 35 36 37 37 37 36 37 37 39 38 38 39 38 37 40 40 39 37 36 38 38 38 38 36 36
43 44 46 47 49 50 48 45 45 49 50 50 49 48 47 48 49 47 47 50 47 44 43 41 37 32 31 32 35 39 42 45 47 49 50 47 44 43 45 48 49 47 47 47 47 47 46 46 46 45 46 43 41 44 46 45 39 32 30 32 35 36 37 39 38 38 38 38 39 38 37 38 38 38 40 39 39 39 39 42 42 41 41 39 39
42 44 44 46 49 48 47 45 44 47 48 47 48 49 48 48 49 49 51 53 48 45 44 41 37 33 31 31 33 35 39 42 45 48 47 45 44 43 43 46 48 49 48 46 47 47 46 46 46 46 45 43 42 44 44 42 37 30 29 33 35 36 38 39 40 40 40 40 40 39 38 39 39 39 39 38 38 39 39 42 43 42 42 41 40
41 43 44 46 47 46 47 46 43 43 45 47 49 52 51 50 51 50 52 53 50 47 45 42 38 33 31 31 32 33 36 39 42 45 44 42 43 43 43 44 46 46 45 44 46 47 47 45 44 44 43 42 42 42 40 38 35 30 29 33 36 37 39 39 40 41 41 42 41 41 41 40 40 40 40 39 40 41 40 41 43 42 43 42 41
41 42 44 46 47 45 46 47 43 42 45 48 51 54 54 55 55 53 52 52 51 49 47 43 40 38 34 33 33 33 36 37 38 41 43 42 41 43 43 41 42 42 42 42 44 46 46 45 45 44 43 42 40 36 36 37 36 33 33 35 37 37 38 39 40 40 40 41 42 43 42 39 40 42 42 41 41 42 41 42 43 43 43 43 43
40 40 42 45 47 45 44 45 43 42 46 50 52 53 55 57 55 54 53 52 52 51 47 44 44 42 38 35 34 35 36 36 36 38 42 44 42 41 41 40 39 40 41 42 44 46 46 45 45 45 44 43 40 35 37 40 40 39 39 40 41 41 42 43 42 40 40 40 40 42 42 40 40 42 43 42 42 42 43 44 44 44 45 45 45
41 41 41 44 47 44 43 43 40 42 46 49 52 53 55 57 55 54 53 51 52 51 48 46 43 41 38 36 36 36 37 37 37 37 40 43 43 41 40 40 39 39 40 42 44 45 45 46 45 45 44 43 41 39 40 41 40 44 46 43 43 45 46 47 46 45 43 41 41 40 41 40 40 41 43 43 42 42 43 44 45 45 46 46 45
42 44 43 44 46 43 42 43 39 41 45 46 49 50 52 55 53 52 51 50 50 49 48 47 43 42 40 36 34 37 39 40 42 41 38 40 42 40 39 39 40 39 40 41 43 44 43 44 45 44 44 43 43 42 42 40 38 43 48 47 47 47 46 46 48 48 46 43 41 40 40 40 40 40 42 43 42 43 44 45 45 46 47 46 46
44 45 45 46 46 42 41 42 38 40 44 43 44 44 47 50 50 50 51 51 50 48 48 48 45 44 44 38 34 38 42 41 41 42 38 37 38 39 39 38 38 39 41 42 42 43 43 44 43 42 43 43 42 42 43 43 40 41 45 47 47 47 47 47 44 43 43 42 41 41 41 41 41 40 41 44 45 46 46 45 45 46 47 46 47
46 45 45 46 47 43 41 42 40 40 43 42 41 41 42 45 47 49 51 51 49 48 48 49 48 47 47 42 37 39 44 43 40 40 39 36 36 39 40 39 38 38 41 46 46 43 44 44 41 41 42 44 44 43 43 43 43 43 45 45 45 45 46 45 42 41 41 42 42 42 42 41 40 39 38 41 43 44 44 44 43 43 44 45 46
45 46 46 45 48 46 42 41 40 40 41 40 40 41 40 42 46 48 48 48 48 48 49 49 49 51 50 47 42 41 44 44 41 40 39 37 37 37 38 41 42 39 40 46 49 48 47 44 40 39 40 43 45 44 43 43 44 45 46 46 45 45 44 43 43 42 41 42 42 42 43 43 43 43 41 40 41 41 42 44 43 42 43 42 43
43 45 46 46 48 47 44 41 39 39 40 38 39 41 40 41 44 46 46 48 49 49 51 50 49 53 52 49 48 45 44 45 42 40 39 39 37 37 37 40 42 42 43 47 48 48 47 43 39 38 37 40 42 42 44 45 45 46 46 45 43 43 43 44 44 43 43 44 44 43 43 44 47 47 44 42 42 41 41 42 42 41 42 41 42
42 44 46 47 47 46 45 42 38 37 38 38 38 40 41 41 43 46 46 48 51 51 51 50 49 51 51 50 51 48 45 46 45 41 41 41 40 39 39 39 41 44 46 48 47 45 43 41 38 37 37 38 39 40 43 46 45 46 47 45 42 40 42 44 46 46 47 45 44 43 43 44 46 46 44 43 42 41 39 40 41 41 42 43 44